www.pogodaiklimat.ru

Погода и климат >> Архив погоды >> Казахстан >> Урда


ПОГОДА в Урде

  • Прогноз погоды в Урде
  • Монитор погоды в Урде

АРХИВ ПОГОДЫ в Урде

Время (UTC), дата Ветер
(напр.,м/с)
 
Видим.   Явления Облачность Т
(С)
Тd
(С)
f
(%)
Тe
(С)
Тes
(С)
Комфортность P
(гПа)
Po
(гПа)
Тmin
(С)
Tmax
(С)
R
(мм)
R24
(мм)
S
(см)
12 13.06 СЗ 6 10 км пыльный позёмок ясно +32.2 +8.6 23 +31 +35 жарко 1012.1 1011.6
15 13.06 С 7 10 км пыльный позёмок ясно +26.2 +9.3 34 +27 +27 жарко 1014.5 1014.0 +37.0
18 13.06 С 4 н/о {метель} ясно +21.8 +10.0 47 +23 +23 комфорт 1016.7 1016.2 +37.0
00 14.06 штиль 0 н/о ясно +11.9 +8.9 82 +11 +11 1019.5 1019.0
03 14.06 СЗ 3 10 км ясно +13.8 +8.4 70 +13 +15 1020.7 1020.2
06 14.06 С 5 10 км ясно +20.0 +7.6 45 +21 +27 комфорт 1021.0 1020.5 +11.6
09 14.06 СВ 4 10 км ясно +22.9 +7.1 36 +24 +36 комфорт 1019.9 1019.4
12 14.06 С 2 10 км ясно +25.4 +6.4 30 +25 +36 комфорт 1018.6 1018.1
15 14.06 С 1 10 км ясно +25.6 +6.1 29 +25 +27 комфорт 1017.2 1016.7 +26.2
18 14.06 штиль 0 н/о ясно +18.6 +7.7 49 +19 +19 1016.8 1016.3 +26.2
21 14.06 штиль 0 н/о ясно +14.5 +8.1 65 +14 +14 1016.3 1015.8
00 15.06 штиль 0 н/о ясно +15.2 +7.8 61 +15 +15 1015.2 1014.7
03 15.06 З 1 10 км ясно +17.4 +7.3 51 +18 +21 1014.0 1013.5
06 15.06 СЗ 3 10 км ясно +27.2 +6.5 27 +27 +37 жарко 1012.8 1012.3 +14.1
09 15.06 З 5 10 км 9/0
[Ac trans]
+28.3 +6.1 24 +27 +32 жарко 1012.1 1011.6
12 15.06 СЗ 6 10 км 9/9 600 м
[Cu med, cong]
+31.5 +4.8 19 +29 +30 жарко 1010.2 1009.7
15 15.06 С 4 10 км 8/8 600 м
[Cu med, cong]
+29.4 +7.1 25 +28 +29 жарко 1008.7 1008.2 +32.2
18 15.06 С 2 н/о ясно +23.4 +8.1 38 +25 +25 комфорт 1010.5 1010.0 +32.2
21 15.06 штиль 0 н/о 9/0
[Ac lent]
+21.7 +8.6 43 +23 +23 комфорт 1010.1 1009.6
00 16.06 штиль 0 н/о 9/0
[Ac cast]
+19.6 +9.7 53 +21 +21 комфорт 1010.1 1009.6
03 16.06 С 1 10 км 9/0
[Ac trans]
+20.7 +9.0 47 +23 +25 комфорт 1010.6 1010.1
06 16.06 СВ 2 10 км 9/0
[Ac und]
+24.1 +8.4 37 +25 +29 комфорт 1010.5 1010.0 +19.3
09 16.06 СВ 1 10 км 9/0
[Ci]
+27.9 +7.7 28 +27 +45 жарко 1010.4 1009.9
12 16.06 СЗ 3 10 км 9/9 600 м
[Cu hum]
+30.8 +6.4 22 +29 +30 жарко 1009.1 1008.6
15 16.06 С 2 10 км 9/9 600 м
[Cu med, cong]
+28.4 +7.4 27 +28 +28 жарко 1008.1 1007.6 +31.6
18 16.06 С 3 н/о 9/9 300 м
[Cb calv]
+26.5 +8.8 33 +27 +27 жарко 1008.9 1008.4 +31.6
21 16.06 С 2 н/о 9/9 600 м
[Cb calv]
+21.5 +9.9 48 +23 +23 комфорт 1008.8 1008.3
00 17.06 СВ 1 н/о 9/9 600 м
[Cb calv]
+20.7 +10.4 52 +24 +24 комфорт 1009.4 1008.9
03 17.06 штиль 0 10 км 9/9 600 м
[Cb calv]
+20.0 +10.6 55 +21 +22 комфорт 1009.7 1009.2
06 17.06 СВ 1 10 км 9/0
[Ac trans]
+22.6 +9.7 44 +24 +31 комфорт 1010.6 1010.1 +19.7
09 17.06 СВ 1 10 км 9/9 600 м
[Cu med, cong]
+29.0 +9.0 29 +29 +31 жарко 1010.9 1010.4
12 17.06 штиль 0 10 км 9/9 600 м
[Cu med, cong]
+29.4 +8.9 28 +29 +31 жарко 1010.3 1009.8
15 17.06 штиль 0 10 км ясно +30.4 +8.6 26 +30 +32 жарко 1009.7 1009.2 +31.0
18 17.06 С 1 н/о ясно +26.0 +9.0 34 +26 +26 жарко 1010.9 1010.4 +31.0
21 17.06 штиль 0 н/о ясно +21.4 +9.8 48 +23 +23 комфорт 1011.5 1011.0
00 18.06 штиль 0 н/о ясно +17.6 +10.7 64 +18 +18 1011.0 1010.5
03 18.06 СВ 1 10 км ясно +19.8 +9.9 53 +22 +25 комфорт 1011.3 1010.8
06 18.06 штиль 0 10 км ясно +28.6 +7.0 26 +28 +44 жарко 1011.4 1010.9 +17.3
09 18.06 З 2 10 км 9/9 600 м
[Cu med, cong]
+33.7 +5.0 17 +31 +33 жарко 1010.7 1010.2
12 18.06 З 4 10 км 9/9 600 м
[Cu med, cong]
+34.3 +4.6 16 +32 +33 жарко 1009.7 1009.2
15 18.06 З 3 10 км ясно +32.0 +4.8 18 +30 +31 жарко 1009.0 1008.5 +35.0
18 18.06 С 1 н/о ясно +25.2 +7.1 31 +25 +25 комфорт 1009.8 1009.3 +35.0
21 18.06 штиль 0 н/о ясно +20.6 +8.4 45 +22 +22 комфорт 1010.3 1009.8
00 19.06 штиль 0 н/о ясно +17.2 +9.2 59 +17 +17 1010.4 1009.9
03 19.06 С 1 10 км ясно +22.2 +8.6 42 +24 +26 комфорт 1010.4 1009.9
06 19.06 СВ 2 10 км ясно +29.2 +7.1 25 +28 +41 жарко 1010.6 1010.1 +16.8
09 19.06 СВ 1 10 км 8/8 600 м
[Cu hum]
+32.0 +5.3 19 +30 +34 жарко 1010.0 1009.5
12 19.06 штиль 0 10 км 9/9 600 м
[Cu hum]
+33.4 +4.8 17 +31 +33 жарко 1008.8 1008.3
15 19.06 В 2 10 км 9/9 600 м
[Cu med, cong]
+32.6 +5.1 18 +30 +31 жарко 1008.8 1008.3 +34.0
18 19.06 В 1 н/о ясно +26.1 +7.3 30 +26 +26 жарко 1009.8 1009.3 +34.0
00 20.06 штиль 0 н/о 9/0
[Ac trans]
+20.7 +9.8 50 +22 +22 комфорт 1010.5 1010.0
03 20.06 В 1 10 км ясно +21.3 +10.3 49 +23 +26 комфорт 1011.4 1010.9
06 20.06 З 1 10 км ясно +28.5 +9.0 29 +28 +43 жарко 1012.4 1011.9 +20.3

 

Местоположение метеостанции Урда (Западно-Казахстанская область, Казахстан): широта 48.77 долгота 47.43 высота над уровнем моря 4 м.

В архиве по умолчанию представлена погода в Урде за последнюю неделю. Архивные данные за месяц целиком и за предыдущие месяцы, начиная с января 2011 года, Вы можете получить, выбрав интересующий диапазон дат из раскрывающегося списка и нажав кнопку "Ввод!".


*Определитесь, кто Вы:
робот инопланетянин человек

Внимание! Время в таблицах - всемирное. Для получения местного времени необходимо прибавить поправку, которая равна 4 ч.

Смотрите также архив погоды в соседних городах и на ближайших метеорологических станциях:

Погода в Эльтоне (Волгоградская область, Россия) (58 км)
Погода в Верхнем Баскунчаке (Астраханская область, Россия) (80 км)
Погода в Жанибеке (Западно-Казахстанская область, Казахстан) (84 км)
Погода в Жанаказане (Западно-Казахстанская область, Казахстан) (87 км)
Погода в Черный Яр (Астраханская область, Россия) (124 км)
Погода в Жанауштогане (Атырауская область, Казахстан) (140 км)
Погода в Казталовке (Западно-Казахстанская область, Казахстан) (142 км)
Погода в Палласовке (Волгоградская область, Россия) (148 км)
Погода в Харабали (Астраханская область, Россия) (153 км)
Погода в Александровом Гае (Саратовская область, Россия) (174 км)

Пояснения к столбцам:

Ветер - указаны скорость ветра в м/с - средняя за 10 мин, порывы в срок и между сроками (в фигурных скобках) и направление, откуда дует ветер: С - северный, СВ - северо-восточный, В - восточный, ЮВ - юго-восточный, Ю - южный, ЮЗ - юго-западный, З - западный, СЗ - северо-западный.
Видимость - горизонтальная дальность видимости в метрах или километрах. При видимости от 1 до 10 км при отсутствии осадков обычно наблюдается дымка, при ухудшении видимости до 1 км и менее - туман. В сухую погоду видимость может ухудшаться дымом, пылью или мглою.
Явления - указаны атмосферные явления, наблюдавшиеся в срок или в последний час перед сроком; фигурными скобками обозначены явления, наблюдавшиеся между сроками (за 1-3 часа до срока); квадратными скобками обозначены град или гололедные отложения с указанием их диаметра в мм.
Облачность - указаны через наклонную черту общая и нижняя облачность в баллах и высота нижней границы облаков в метрах; квадратными скобками обозначены формы облаков: Ci - перистые, Cs - перисто-слоистые, Cc - перисто-кучевые, Ac - высококучевые, As - высокослоистые, Sc - слоисто-кучевые, Ns - слоисто-дождевые, Cu - кучевые, Cb - кучево-дождевые. Подробнее классификацию облаков см. в Атласе облаков (PDF).
T - Температура воздуха - температура, измеренная на высоте 2 м над землей.
Td - Температура точки росы - температура, при понижении до которой содержащийся в воздухе водяной пар достигнет насыщения.
f - Относительная влажность воздуха - влажноcть воздуха, измеренная на высоте 2 м над землей.
Te - Эффективная температура - температура, которую ощущает одетый по сезону человек в тени. Характеристика душности погоды. При расчете учитывается влияние влажности воздуха и скорости ветра на теплоощущения человека.
Tes - Эффективная температура на солнце - температура, которую ощущает человек, с поправкой на солнечный нагрев. Характеристика знойности погоды. Зависит от высоты солнца над горизонтом, облачности и скорости ветра. Ночью, в пасмурную погоду, а также при ветре 12 м/с и более поправка равна нулю.
P - Атмосферное давление - приведенное к уровню моря атмосферное давление.
Po - Атмосферное давление - измеренное на уровне метеостанции атмосферное давление.
Tmin - Минимальная температура - минимум температуры воздуха на высоте 2 м над землей.
Tmax - Максимальная температура - максимум температуры воздуха на высоте 2 м над землей.
R - Количество осадков - Количество выпавших осадков за период времени, мм. При наведении курсора мыши на число - период времени, за который выпало указанное количество осадков.
R24 - Количество осадков - Количество выпавших осадков за 24 часа, мм.
S - Снежный покров - Высота снежного покрова, см. При наведении курсора мыши на число - состояние снежного покрова и степень покрытия местности в баллах.